Location: Unspecified
(0.0000°N, 0.0000°E)
Time: 01:29:47
(UTC+00:00)

SR - Visible Passes

Search period start: 21 May 2024 00:00
Search period end: 31 May 2024 00:00
Orbit: 579 x 860 km, 66.7° (Epoch: 20 May)

Date Brightness Start Highest point End Pass type
(mag) Time Alt. Az. Time Alt. Az. Time Alt. Az.
21 May ? 03:43:26 10° NNE 03:46:26 19° ENE 03:49:32 10° ESE visible
21 May ? 05:25:08 10° WNW 05:28:00 17° WSW 05:30:58 10° SSW visible
22 May ? 04:31:34 10° NNW 04:35:45 55° WSW 04:40:12 10° S visible
23 May?03:48:16SE03:48:16SE03:37:59Nvisible
